Location: Newark
(46.7636°N, 1.8358°W)
Time: 02:26:15
(UTC+00:00)

S-56A Canister/Altair - All Passes

Search period start: 16 October 2019 00:00
Search period end: 26 October 2019 00:00
Orbit: 633 x 2499 km, 38.9° (Epoch: 14 October)

Date Brightness Start Highest point End Pass type
(mag) Time Alt. Az. Time Alt. Az. Time Alt. Az.
16 Oct - 02:16:45 10° SSE 02:20:42 16° SE 02:25:28 10° E visible
16 Oct - 04:16:10 10° SW 04:23:16 43° SSE 04:33:40 10° E visible
16 Oct - 06:18:37 10° WSW 06:27:33 58° S 06:40:30 10° ESE daylight
16 Oct - 08:22:19 10° W 08:32:40 47° SSW 08:46:12 10° SE daylight
16 Oct - 10:27:47 10° W 10:37:29 26° SW 10:48:29 10° S daylight
17 Oct - 01:45:49 10° SSE 01:48:13 12° SE 01:50:53 10° ESE visible
17 Oct - 03:43:57 10° SW 03:50:29 38° SSE 03:59:57 10° E visible
17 Oct - 05:46:08 10° WSW 05:54:28 56° S 06:06:46 10° ESE visible
17 Oct - 07:49:35 10° W 07:59:24 48° SSW 08:12:43 10° SE daylight
17 Oct - 09:54:35 10° W 10:04:15 28° SW 10:15:39 10° SSE daylight
18 Oct - 03:11:49 10° SSW 03:17:46 34° SSE 03:26:14 10° E visible
18 Oct - 05:13:42 10° WSW 05:21:27 54° S 05:33:04 10° ESE visible
18 Oct - 07:16:54 10° W 07:26:12 50° SSW 07:39:11 10° SE daylight
18 Oct - 09:21:32 10° W 09:31:03 30° SSW 09:42:39 10° SSE daylight
19 Oct - 02:39:45 10° SSW 02:45:09 29° SSE 02:52:35 10° E visible
19 Oct - 04:41:19 10° WSW 04:48:31 52° S 04:59:22 10° E visible
19 Oct - 06:44:19 10° W 06:53:03 50° SSW 07:05:36 10° ESE daylight
19 Oct - 08:48:35 10° W 08:57:51 32° SSW 09:09:33 10° SSE daylight
19 Oct - 10:58:32 10° WSW 11:02:01 11° SW 11:05:39 10° SSW daylight
20 Oct - 02:07:47 10° SSW 02:12:34 24° SE 02:18:56 10° E visible
20 Oct - 04:08:58 10° WSW 04:15:40 49° SSE 04:25:43 10° E visible
20 Oct - 06:11:47 10° W 06:19:59 51° S 06:31:58 10° ESE daylight
20 Oct - 08:15:45 10° W 08:24:42 33° SSW 08:36:20 10° SSE daylight
20 Oct - 10:23:57 10° WSW 10:28:57 13° SW 10:34:23 10° SSW daylight
21 Oct - 01:35:57 10° S 01:40:04 20° SE 01:45:17 10° E visible
21 Oct - 03:36:41 10° SW 03:42:53 46° SSE 03:52:06 10° E visible
21 Oct - 05:39:18 10° W 05:46:58 51° S 05:58:21 10° ESE visible
21 Oct - 07:43:00 10° W 07:51:34 35° SSW 08:03:03 10° SSE daylight
21 Oct - 09:50:04 10° WSW 09:55:54 15° SW 10:02:24 10° SSW daylight
22 Oct - 01:04:16 10° S 01:07:36 16° SE 01:11:34 10° ESE visible
22 Oct - 03:04:26 10° SW 03:10:10 42° SSE 03:18:33 10° E visible
22 Oct - 05:06:52 10° WSW 05:14:02 50° S 05:24:45 10° ESE visible
22 Oct - 07:10:20 10° W 07:18:29 36° SSW 07:29:42 10° SE daylight
22 Oct - 09:16:35 10° WSW 09:22:50 16° SW 09:30:03 10° S daylight
23 Oct - 00:32:56 10° SSE 00:35:09 12° SE 00:37:37 10° ESE night (unlit)
23 Oct - 02:32:14 10° SW 02:37:32 37° SSE 02:45:04 10° E visible
23 Oct - 04:34:29 10° WSW 04:41:09 50° S 04:51:10 10° ESE visible
23 Oct - 06:37:44 10° W 06:45:28 37° SSW 06:56:18 10° SE daylight
23 Oct - 08:43:20 10° WSW 08:49:48 18° SW 08:57:28 10° S daylight
24 Oct - 02:00:05 10° SW 02:04:57 33° SSE 02:11:39 10° E visible
24 Oct - 04:02:08 10° WSW 04:08:21 48° S 04:17:38 10° ESE visible
24 Oct - 06:05:12 10° W 06:12:29 38° SSW 06:22:53 10° SE visible
24 Oct - 08:10:16 10° WSW 08:16:46 19° SW 08:24:43 10° S daylight
25 Oct - 01:27:57 10° SW 01:32:25 29° SSE 01:38:17 10° E visible
25 Oct - 03:29:49 10° WSW 03:35:36 46° S 03:44:09 10° ESE visible
25 Oct - 05:32:44 10° W 05:39:34 39° SSW 05:49:27 10° SE visible
25 Oct - 07:37:21 10° WSW 07:43:47 20° SSW 07:51:50 10° S daylight
